Location: Unspecified
(37.6100°N, 2.7800°W)
Time: 17:35:20
(UTC+00:00)

Tiangong 2 - Visible Passes

Search period start: 18 October 2018 00:00
Search period end: 28 October 2018 00:00
Orbit: 384 x 393 km, 42.8° (Epoch: 18 October)

Date Brightness Start Highest point End Pass type
(mag) Time Alt. Az. Time Alt. Az. Time Alt. Az.
18 Oct 4.3 03:59:38 14° E 03:59:38 14° E 04:00:14 10° E visible
18 Oct 2.2 05:31:56 17° W 05:33:51 31° SSW 05:36:43 10° SSE visible
19 Oct 2.4 04:36:42 34° SE 04:36:42 34° SE 04:38:44 10° SE visible
20 Oct 3.0 05:13:53 16° SW 05:13:53 16° SW 05:15:52 10° S visible
26 Oct 3.3 19:08:12 10° SW 19:09:23 19° SSW 19:09:23 19° SSW visible
27 Oct 2.9 18:10:31 10° S 18:12:50 19° SE 18:14:01 15° ESE visible
27 Oct 4.6 19:46:13 10° WSW 19:46:19 11° WSW 19:46:19 11° WSW visible
